Regional Weather Roundup
Issued by NWS

Home | Current Version | Previous Version | Text Only | Print | Product List | Glossary On
Versions: 1 2 3 4 5 6 7 8 9 10 11 12 13 14 15 16 17 18 19 20 21 22 23 24 25 26 27 28 29 30 31 32 33 34 35 36 37 38 39 40 41 42 43 44 45 46 47 48 49 50
000
ASUS44 KOUN 262100
RWROK

WEATHER ROUNDUP FOR OKLAHOMA
NATIONAL WEATHER SERVICE NORMAN OK
400 PM CDT TUE SEP 26 2017

NOTE: "FAIR" INDICATES FEW OR NO CLOUDS BELOW 12,000 FEET WITH NO
      SIGNIFICANT WEATHER AND/OR OBSTRUCTIONS TO VISIBILITY.

OKZ001>007-009>012-014-015-017-262200-
NORTHWEST OKLAHOMA AND THE PANHANDLE

CITY           SKY/WX    TMP DP  RH WIND       PRES   REMARKS
GAGE           PTSUNNY   61  53  75 N12       30.11F
GUYMON         CLOUDY    60  52  74 NE13      30.13F
$$

OKZ016-021>023-033>039-044-045-262200-
SOUTHWEST OKLAHOMA

CITY           SKY/WX    TMP DP  RH WIND       PRES   REMARKS
LAWTON/REGL    CLOUDY    67  66  97 N18       29.98R
LAWTON/FT SILL DRIZZLE   65  65 100 NE16G24   29.97S
FREDERICK      CLOUDY    65  64  97 N18G24    29.96R FOG
CLINTON        LGT RAIN  61  58  90 N13       30.07S
HOBART         LGT RAIN  63  60  90 N20       30.04R
ALTUS AFB      CLOUDY    65  60  81 N20       30.00F
$$

OKZ018>020-024>031-262200-
CENTRAL OKLAHOMA

CITY           SKY/WX    TMP DP  RH WIND       PRES   REMARKS
OKLAHOMA CITY  RAIN      64  63  96 N14       30.03R FOG
OKC/WILEY POST RAIN      64  63  96 N12       30.04R
OKC/TINKER AFB HVY RAIN  67  66  97 N13       30.01R FOG
STILLWATER     CLOUDY    65  63  93 N10       30.03S
GUTHRIE        LGT RAIN  64  63  96 N8        30.04R
$$

OKZ008-013-054>072-262200-
NORTHEAST OKLAHOMA

CITY           SKY/WX    TMP DP  RH WIND       PRES   REMARKS
TULSA          CLOUDY    75  69  81 N9        29.98F
TULSA/JONES    CLOUDY    75  67  76 N9        29.99S
PONCA CITY     LGT RAIN  64  60  87 N8        30.05R
BARTLESVILLE   CLOUDY    68  66  93 N6        30.03F
MUSKOGEE       MOSUNNY   85  68  56 N12       29.95F
$$

OKZ032-040>043-046>053-073>077-262200-
SOUTH CENTRAL/SOUTHEAST OKLAHOMA

CITY           SKY/WX    TMP DP  RH WIND       PRES   REMARKS
MCALESTER      LGT RAIN  83  71  67 N7        29.93F
$$





USA.gov is the U.S. government's official web portal to all federal, state and local government web resources and services.